Powrót do katalogu

BREEZE-M R/B

AktywnyHEO
NORAD 42750·ROCKET BODY·🇷🇺 Russia

Wystrzelony Jun 8, 2017 z Baikonur Cosmodrome

Loading…

Następne Przeloty (najbliższe 24 godziny)

TLE

ŚwieżeSource: Space-Track

Epoka: Sep 7, 2026, 03:36 UTC

1 42750U 17032B   26250.15049057  .00000093  00000-0  00000-0 0  9999
2 42750  30.2418 185.0820 6718232 257.0057  25.5808  2.26362832 76530

Śledź BREEZE-M R/B w czasie rzeczywistym z AllMySat

Download on the App Store